Weather History for Mammoth, CA

Change the Weather History Date:

Saturday, January 25, 2014

  Actual Average Record
Temperature  
Mean Temperature 34 °F -  
Max Temperature 53 °F 34 °F 53 °F (2014)
Min Temperature 15 °F 20 °F 12 °F (1998)
Degree Days  
Heating Degree Days 31    
Moisture  
Dew Point 11 °F    
Average Humidity 49    
Maximum Humidity 74    
Minimum Humidity 16    
Precipitation  
Precipitation 0.00 in - - ()
Sea Level Pressure  
Sea Level Pressure 30.36 in    
Wind  
Wind Speed 2 mph (ESE)    
Max Wind Speed 8 mph    
Max Gust Speed -    
Visibility 10 miles    
Events      
Averages and records for this station are not official NWS values.
T = Trace of Precipitation, MM = Missing Value Source: NWS Daily Summary

Daily Weather History Graph

Daily Weather History Graph

Search for Another Location

Airport:

Trip Planner

Search our weather history database for the weather conditions in past years. The results will help you decide how hot, cold, wet, or windy it might be!

Date:

Astronomy

Jan. 25, 2014 Rise Set
Actual Time 7:04 AM PST 5:11 PM PST
Civil Twilight 6:36 AM PST 5:39 PM PST
Nautical Twilight 6:04 AM PST 6:11 PM PST
Astronomical Twilight 5:33 AM PST 6:42 PM PST
Moon 1:42 AM PST (1/25) 12:15 PM PST (1/25)
Length of Visible Light 11h 03m
Length of Day
10h 07m
Waning Crescent, 33% of the Moon is Illuminated
Jan 25
Waning Crescent
Jan 30
New
Feb 6
First Quarter
Feb 14
Full
Feb 22
Last Quarter

Hourly Weather History & Observations

Time (PST) Temp. Windchill Dew Point Humidity Pressure Visibility Wind Dir Wind Speed Gust Speed Precip Events Conditions
12:15 AM 21.2 °F 16.4 °F 12.2 °F 68% 30.43 in 10.0 mi North 3.5 mph - N/A   Clear
12:35 AM 21.2 °F - 12.2 °F 68% 30.44 in 10.0 mi Calm Calm - N/A   Mostly Cloudy
12:55 AM 19.4 °F - 10.4 °F 68% 30.43 in 10.0 mi Calm Calm - N/A   Overcast
1:15 AM 21.2 °F - 12.2 °F 68% 30.43 in 10.0 mi Calm Calm - N/A   Overcast
1:35 AM 21.2 °F 16.4 °F 12.2 °F 68% 30.43 in 10.0 mi NW 3.5 mph - N/A   Overcast
1:55 AM 21.2 °F - 10.4 °F 63% 30.43 in 10.0 mi Calm Calm - N/A   Overcast
2:15 AM 19.4 °F - 8.6 °F 63% 30.43 in 10.0 mi Calm Calm - N/A   Overcast
2:35 AM 19.4 °F - 8.6 °F 63% 30.43 in 10.0 mi Calm Calm - N/A   Mostly Cloudy
2:55 AM 21.2 °F - 12.2 °F 68% 30.43 in 10.0 mi Calm Calm - N/A   Scattered Clouds
3:15 AM 19.4 °F 14.3 °F 10.4 °F 68% 30.42 in 10.0 mi North 3.5 mph - N/A   Clear
3:35 AM 21.2 °F - 12.2 °F 68% 30.42 in 10.0 mi Calm Calm - N/A   Clear
3:55 AM 23.0 °F - 12.2 °F 63% 30.41 in 10.0 mi Calm Calm - N/A   Scattered Clouds
4:15 AM 21.2 °F - 12.2 °F 68% 30.41 in 10.0 mi Calm Calm - N/A   Mostly Cloudy
4:35 AM 23.0 °F - 12.2 °F 63% 30.41 in 10.0 mi Calm Calm - N/A   Scattered Clouds
4:55 AM 17.6 °F 12.3 °F 8.6 °F 68% 30.40 in 10.0 mi NNW 3.5 mph - N/A   Scattered Clouds
5:15 AM 17.6 °F - 10.4 °F 73% 30.40 in 10.0 mi Calm Calm - N/A   Mostly Cloudy
5:35 AM 19.4 °F - 12.2 °F 74% 30.40 in 10.0 mi Calm Calm - N/A   Mostly Cloudy
5:55 AM 15.8 °F - 6.8 °F 68% 30.39 in 10.0 mi Calm Calm - N/A   Scattered Clouds
6:15 AM 17.6 °F - 8.6 °F 68% 30.39 in 10.0 mi Calm Calm - N/A   Mostly Cloudy
6:35 AM 17.6 °F - 10.4 °F 73% 30.39 in 10.0 mi Calm Calm - N/A   Scattered Clouds
6:55 AM 17.6 °F - 10.4 °F 73% 30.39 in 10.0 mi Calm Calm - N/A   Clear
7:15 AM 19.4 °F - 10.4 °F 68% 30.39 in 10.0 mi Calm Calm - N/A   Clear
7:35 AM 17.6 °F - 10.4 °F 73% 30.39 in 10.0 mi Calm Calm - N/A   Clear
7:55 AM 15.8 °F - 8.6 °F 73% 30.39 in 10.0 mi Calm Calm - N/A   Clear
8:15 AM 21.2 °F - 12.2 °F 68% 30.40 in 10.0 mi Calm Calm - N/A   Clear
8:35 AM 21.2 °F 14.9 °F 10.4 °F 63% 30.41 in 10.0 mi NNW 4.6 mph - N/A   Clear
8:55 AM 23.0 °F 18.4 °F 12.2 °F 63% 30.41 in 10.0 mi North 3.5 mph - N/A   Clear
9:15 AM 26.6 °F - 14.0 °F 59% 30.41 in 10.0 mi Calm Calm - N/A   Clear
9:35 AM 30.2 °F - 14.0 °F 51% 30.41 in 10.0 mi Calm Calm - N/A   Clear
9:55 AM 32.0 °F 27.5 °F 15.8 °F 51% 30.41 in 10.0 mi SE 4.6 mph - N/A   Clear
10:15 AM 32.0 °F 26.4 °F 15.8 °F 51% 30.40 in 10.0 mi SE 5.8 mph - N/A   Clear
10:35 AM 35.6 °F 31.7 °F 15.8 °F 44% 30.40 in 10.0 mi SE 4.6 mph - N/A   Clear
10:55 AM 41.0 °F 36.4 °F 15.8 °F 36% 30.40 in 10.0 mi SE 6.9 mph - N/A   Clear
11:15 AM 44.6 °F 41.4 °F 15.8 °F 31% 30.38 in 10.0 mi SE 5.8 mph - N/A   Clear
11:35 AM 46.4 °F 43.5 °F 14.0 °F 27% 30.37 in 10.0 mi ESE 5.8 mph - N/A   Clear
11:55 AM 48.2 °F - 14.0 °F 25% 30.36 in 10.0 mi SE 4.6 mph - N/A   Clear
12:15 PM 50.0 °F - 14.0 °F 24% 30.35 in 10.0 mi ESE 8.1 mph - N/A   Clear
12:35 PM 51.8 °F - 14.0 °F 22% 30.34 in 10.0 mi ESE 6.9 mph - N/A   Clear
12:55 PM 51.8 °F - 12.2 °F 21% 30.33 in 10.0 mi SE 5.8 mph - N/A   Clear
1:15 PM 51.8 °F - 12.2 °F 21% 30.32 in 10.0 mi SE 6.9 mph - N/A   Clear
1:35 PM 51.8 °F - 10.4 °F 19% 30.31 in 10.0 mi SSW 5.8 mph - N/A   Clear
1:55 PM 53.6 °F - 10.4 °F 18% 30.31 in 10.0 mi South 4.6 mph - N/A   Clear
2:15 PM 53.6 °F - 10.4 °F 18% 30.30 in 5.0 mi SE 3.5 mph - N/A   Haze
2:35 PM 53.6 °F - 10.4 °F 18% 30.30 in 10.0 mi ESE 3.5 mph - N/A   Clear
2:55 PM 53.6 °F - 8.6 °F 16% 30.29 in 10.0 mi ESE 3.5 mph - N/A   Clear
3:15 PM 53.6 °F - 10.4 °F 18% 30.29 in 10.0 mi SSE 5.8 mph - N/A   Clear
3:35 PM 53.6 °F - 10.4 °F 18% 30.28 in 10.0 mi SE 4.6 mph - N/A   Clear
3:55 PM 51.8 °F - 10.4 °F 19% 30.28 in 10.0 mi South 3.5 mph - N/A   Clear
4:15 PM 51.8 °F - 10.4 °F 19% 30.28 in 10.0 mi SW 5.8 mph - N/A   Clear
4:35 PM 44.6 °F 43.1 °F 10.4 °F 25% 30.29 in 10.0 mi SSE 3.5 mph - N/A   Clear
4:55 PM 42.8 °F - 8.6 °F 25% 30.29 in 10.0 mi Calm Calm - N/A   Clear
5:15 PM 42.8 °F 41.1 °F 10.4 °F 27% 30.29 in 10.0 mi WSW 3.5 mph - N/A   Clear
5:35 PM 41.0 °F 38.0 °F 10.4 °F 29% 30.29 in 10.0 mi West 4.6 mph - N/A   Clear
5:55 PM 37.4 °F - 8.6 °F 30% 30.30 in 7.0 mi Calm Calm - N/A   Clear
6:15 PM 37.4 °F - 10.4 °F 33% 30.30 in 10.0 mi Calm Calm - N/A   Clear
7:15 PM 33.8 °F 30.8 °F 10.4 °F 38% 30.31 in 10.0 mi WNW 3.5 mph - N/A   Clear
7:35 PM 32.0 °F - 12.2 °F 44% 30.31 in 10.0 mi Calm Calm - N/A   Clear
7:55 PM 30.2 °F - 12.2 °F 47% 30.30 in 10.0 mi Calm Calm - N/A   Clear
8:15 PM 30.2 °F 26.7 °F 12.2 °F 47% 30.31 in 10.0 mi North 3.5 mph - N/A   Clear
8:35 PM 28.4 °F 24.6 °F 12.2 °F 51% 30.31 in 10.0 mi NNW 3.5 mph - N/A   Clear
8:55 PM 30.2 °F 26.7 °F 12.2 °F 47% 30.31 in 10.0 mi WNW 3.5 mph - N/A   Clear
9:15 PM 26.6 °F - 12.2 °F 55% 30.31 in 10.0 mi Calm Calm - N/A   Clear
9:35 PM 26.6 °F - 12.2 °F 55% 30.31 in 10.0 mi Calm Calm - N/A   Clear
9:55 PM 26.6 °F 22.6 °F 12.2 °F 55% 30.31 in 10.0 mi North 3.5 mph - N/A   Clear
10:15 PM 26.6 °F - 10.4 °F 51% 30.30 in 10.0 mi Calm Calm - N/A   Clear
10:35 PM 24.8 °F 20.5 °F 10.4 °F 54% 30.30 in 10.0 mi NNW 3.5 mph - N/A   Clear
10:55 PM 24.8 °F 20.5 °F 10.4 °F 54% 30.30 in 10.0 mi NNW 3.5 mph - N/A   Clear
11:15 PM 24.8 °F - 10.4 °F 54% 30.29 in 10.0 mi Calm Calm - N/A   Clear
11:35 PM 24.8 °F 19.1 °F 12.2 °F 59% 30.29 in 10.0 mi North 4.6 mph - N/A   Clear
11:55 PM 23.0 °F - 12.2 °F 63% 30.28 in 10.0 mi Calm Calm - N/A   Clear